Estación Meteorológica Peña el Pijo (Robertgarden) [ 11/14/19 12:53:36 CET ]

Fecha Hora Presion(HPa) Temp (°C) Humedad % Rocio (°C) Viento ( m/s) Direccion Lluvia 1Hora(mm) Lluvia 24H(mm) LLuvia Total(mm)
2019-Jun-16 01:08:36 1012.200 - - - - WSW     330.48
2019-Jun-16 02:08:43 1012.000 - - - - WSW     330.48
2019-Jun-16 03:09:53 1011.700 - - - - WSW     330.48
2019-Jun-16 04:10:53 1011.200 - - - - WSW     330.48
2019-Jun-16 05:09:13 1011.000 - - - - WSW     330.48
2019-Jun-16 06:09:34 1010.800 - - - - WSW     330.48
2019-Jun-16 07:09:17 1011.100 - - - - WSW     330.48
2019-Jun-16 08:09:09 1011.600 - - - - WSW     330.48
2019-Jun-16 09:09:31 1011.400 - - - - WSW     330.48
2019-Jun-16 10:09:12 1011.500 - - - - WSW     330.48
2019-Jun-16 11:08:57 1011.300 - - - - WSW     330.48
2019-Jun-16 12:08:50 1011.500 - - - - WSW     330.48
2019-Jun-16 13:09:06 1011.400 - - - - WSW     330.48
2019-Jun-16 14:09:36 1011.000 - - - - WSW     330.48
2019-Jun-16 15:09:29 1010.700 - - - - WSW     330.48
2019-Jun-16 16:09:33 1010.800 - - - - WSW     330.48
2019-Jun-16 17:09:39 1010.100 - - - - WSW     330.48
2019-Jun-16 18:09:25 1010.600 - - - - WSW     330.48
2019-Jun-16 19:09:35 1010.700 - - - - WSW     330.48
2019-Jun-16 20:09:00 1010.500 - - - - WSW     330.48
2019-Jun-16 21:09:07 1010.600 - - - - WSW     330.48
2019-Jun-16 22:09:09 1011.100 - - - - WSW     330.48
2019-Jun-16 23:08:41 1011.800 - - - - WSW     330.48

Temperatura Máxima:    Temperatura Mínima:
Presión Máxima:1012.200 Hpa    Presión Mínima:1010.100 Hpa


Volver